Regional Weather Roundup
Issued by NWS State College, PA

Home | Current Version | Previous Version | Graphics & Text | Print | Product List | Glossary On
Versions: 1 2 3 4 5 6 7 8 9 10 11 12 13 14 15 16 17 18 19 20 21 22 23 24 25 26 27 28 29 30 31 32 33 34 35 36 37 38 39 40 41 42 43 44 45 46 47 48 49 50
695
ASUS41 KCTP 280103
RWRCTP

REGIONAL WEATHER ROUNDUP
NATIONAL WEATHER SERVICE STATE COLLEGE PA
900 PM EDT TUE JUN 27 2017

Note: "fair" indicates few or no clouds below 12,000 feet with no
significant weather and/or obstructions to visibility.

* = STATION THAT DOES NOT REPORT PRECIPITATION /E.G. RAIN...SNOW...ETC/
    THUNDER OR FOG.

PAZ002>004-007>009-013>016-020>023-029>032-280200-
WESTERN PENNSYLVANIA

CITY           SKY/WX    TMP DP  RH WIND       PRES   REMARKS
ERIE           CLEAR     62  48  60 SW6       30.05S
MEADVILLE      CLEAR     59  46  62 SW3       30.08S
FRANKLIN*      CLEAR     57  46  67 W3        30.09S
NEW CASTLE     FAIR      58  50  75 CALM      30.09S
BEAVER COUNTY  CLEAR     61  46  59 CALM      30.09R
BUTLER*        CLEAR     61  45  55 CALM      30.09S
PITTSBURGH INT PTCLDY    63  47  55 W5        30.08S
PITTSBURGH     CLEAR     63  44  50 NW3       30.08S
INDIANA*       CLEAR     61  48  63 NW3       30.12R
LATROBE        MOCLDY    63  48  59 CALM      30.10R
WASHINGTON CO* CLEAR     57  48  72 CALM      30.12R
$$

PAZ004>006-010>012-017>019-024>028-033>037-041-042-045-046-049>053-280200-
CENTRAL PENNSYLVANIA

CITY           SKY/WX    TMP DP  RH WIND       PRES   REMARKS
BRADFORD       PTCLDY    54  49  83 W3        30.07R
DUBOIS         PTCLDY    55  46  71 W7        30.08R
CLEARFIELD     PTCLDY    59  49  69 SW5       30.08R
JOHNSTOWN      MOCLDY    58  48  69 NW7       30.10R
ALTOONA        CLEAR     61  48  62 W9        30.09R
STATE COLLEGE  PTCLDY    61  48  63 W7        30.07R
WILLIAMSPORT   PTCLDY    61  53  75 W3        30.02R
SELINSGROVE    MOCLDY    64  50  60 VRB3      30.04R
FT INDIANTOWN  CLEAR     66  47  50 W7        30.02R
CAPITAL CITY   CLEAR     69  45  41 NW10      30.03R
HARRISBURG     PTCLDY    68  46  45 NW13G21   30.02R
YORK           CLEAR     65  48  54 NW5       30.04R
$$

PAZ038>040-043-044-047-048-054-055-060>062-067>071-280200-
EASTERN PENNSYLVANIA

CITY           SKY/WX    TMP DP  RH WIND       PRES   REMARKS
SCRANTON       MOCLDY    63  48  58 W5        30.00R
MOUNT POCONO   CLEAR     58  48  69 NW9       30.01R
ALLENTOWN      CLOUDY    69  48  47 W8        29.99R
QUAKERTOWN*    PTCLDY    66  48  52 W3        30.01R
READING        PTCLDY    68  49  50 NW10      30.00R
LANCASTER      CLEAR     68  49  50 NW13      30.02R
COATESVILLE    NOT AVBL
POTTSTOWN      PTCLDY    67  47  48 NW5       30.02R
BLUE BELL      NOT AVBL
DOYLESTOWN     MOCLDY    69  48  47 W6        29.99R
WILLOW GROVE   NOT AVBL
NORTH PHILA    CLOUDY    73  49  42 NW7       29.99R
PHILADELPHIA   PTCLDY    74  49  41 NW8       29.99R
$$




USA.gov is the U.S. government's official web portal to all federal, state and local government web resources and services.